Regional Weather Roundup
Issued by NWS State College, PA

Home | Current Version | Previous Version | Graphics & Text | Print | Product List | Glossary On
Versions: 1 2 3 4 5 6 7 8 9 10 11 12 13 14 15 16 17 18 19 20 21 22 23 24 25 26 27 28 29 30 31 32 33 34 35 36 37 38 39 40 41 42 43 44 45 46 47 48 49 50
115
ASUS41 KCTP 212310
RWRCTP

REGIONAL WEATHER ROUNDUP
NATIONAL WEATHER SERVICE STATE COLLEGE PA
700 PM EDT MON MAY 21 2018

Note: "fair" indicates few or no clouds below 12,000 feet with no
significant weather and/or obstructions to visibility.

* = STATION THAT DOES NOT REPORT PRECIPITATION /E.G. RAIN...SNOW...ETC/
    THUNDER OR FOG.

PAZ002>004-007>009-013>016-020>023-029>032-220000-
WESTERN PENNSYLVANIA

CITY           SKY/WX    TMP DP  RH WIND       PRES   REMARKS
ERIE           FAIR      65  46  50 NE9       30.09F
MEADVILLE      FAIR      74  52  46 VRB3      30.09F
FRANKLIN*      FAIR      73  54  51 SE6       30.11F
NEW CASTLE     FAIR      77  60  55 CALM      30.08F
BEAVER COUNTY  SUNNY     77  59  53 E3        30.08F
BUTLER*        FAIR      76  60  57 E6        30.08F
PITTSBURGH INT PTSUNNY   79  58  48 CALM      30.07F
PITTSBURGH     FAIR      78  60  53 SE3       30.07F
INDIANA*       MOSUNNY   77  61  57 E6        30.13F
LATROBE        PTSUNNY   79  63  57 CALM      30.08
WASHINGTON CO* FAIR      79  62  56 E5        30.09F
$$

PAZ004>006-010>012-017>019-024>028-033>037-041-042-045-046-049>053-220000-
CENTRAL PENNSYLVANIA

CITY           SKY/WX    TMP DP  RH WIND       PRES   REMARKS
BRADFORD       FAIR      72  41  32 SE6       30.14F
DUBOIS         FAIR      72  54  53 E3        30.12F
CLEARFIELD     FAIR      74  50  42 E7        30.13F
JOHNSTOWN      PTSUNNY   72  59  63 SE7       30.14S
ALTOONA        FAIR      75  58  55 SE9       30.14S
STATE COLLEGE  SUNNY     72  48  43 CALM      30.14F
WILLIAMSPORT   FAIR      75  47  36 S5        30.11S
SELINSGROVE    FAIR      73  47  39 CALM      30.13F
FT INDIANTOWN  MOSUNNY   76  55  47 S6        30.13S
CAPITAL CITY   FAIR      80  52  37 CALM      30.12F
HARRISBURG     FAIR      74  59  59 S3        30.12S
YORK           FAIR      78  58  49 CALM      30.13S
$$

PAZ038>040-043-044-047-048-054-055-060>062-067>071-220000-
EASTERN PENNSYLVANIA

CITY           SKY/WX    TMP DP  RH WIND       PRES   REMARKS
SCRANTON       FAIR      75  45  34 NW5       30.14R
MOUNT POCONO   FAIR      72  38  29 CALM      30.16S
ALLENTOWN      FAIR      78  48  34 S8        30.12F
QUAKERTOWN*    CLEAR     77  48  36 CALM      30.14F
READING        FAIR      77  50  38 W3        30.12S
LANCASTER      FAIR      75  58  55 SE5       30.14R
COATESVILLE    FAIR      73  54  49 CALM      30.17R
POTTSTOWN      FAIR      75  50  41 VRB3      30.15F
BLUE BELL      FAIR      73  46  38 CALM      30.15S
DOYLESTOWN     FAIR      75  50  41 S6        30.13S
WILLOW GROVE   NOT AVBL
NORTH PHILA    FAIR      78  54  43 SE12      30.15R
PHILADELPHIA   CLOUDY    76  52  43 S5        30.13S
$$




USA.gov is the U.S. government's official web portal to all federal, state and local government web resources and services.